| |
Missouri Department of Transportation

Social Media Facebook Twitter Flickr Instagram YouTube RSS

Current AWOS Information

 
AWOS Home - General Info for all Airports
Current AWOS for all Airports - Current METAR for all Airports
Glossary - Disclaimer - Other Links


MALDEN--MALDEN REGIONAL--KMAW
 
Recent AWOS History
 
07/28/15     12:42 AM CDT      05:42 GMT
Air Temperature 81°F (27°C ) 1st Cloud Layer Clear
Dew Point 77°F (25°C) 2nd Cloud Layer  
Barometric Pressure 29.95 in Hg. 3rd Cloud Layer  
Wind Speed 0 mph (0 knots) Density Altitude 1800 feet
Peak Wind Gusts   Variable Wind Directions  
Wind Direction   Variable Visibility  
Visibility 10 statute miles  

Thunderstorm and Precipitation Identification: 
Thunderstorm Remarks: 

Current METAR Record: METAR KMAW 280539Z AUTO 00000KT 10SM CLR 27/25 A2995 RMK AO2

 

 

 

About Us
How Do I...
Contact Us
Missouri Department of Transportation
Central Office
105 W. Capitol Avenue
Jefferson City, MO 65102
1-888-ASK-MODOT (275-6636)
1-866-831-6277 (Motor Carrier Services)
Driver's License Offices
horz_bar
| | |
Missouri State Government
© 2013 Missouri Department of Transportation. All Rights Reserved.   Privacy Policy.
 
 
 
 
RSS FeedYoutubeBlogFlickrTwitter Facebook